Regional Weather Roundup
Issued by NWS

Home | Current Version | Previous Version | Text Only | Print | Product List | Glossary Off
Versions: 1 2 3 4 5 6 7 8 9 10 11 12 13 14 15 16 17 18 19 20 21 22 23 24 25 26 27 28 29 30 31 32 33 34 35 36 37 38 39 40 41 42 43 44 45 46 47 48 49 50

000
ASUS43 KIND 171359
RWRIN

WEATHER ROUNDUP FOR INDIANA
NATIONAL WEATHER SERVICE INDIANAPOLIS IN
1000 AM EDT THU APR 17 2014

NOTE: "FAIR" INDICATES FEW OR NO CLOUDS BELOW 12,000 FEET WITH NO
SIGNIFICANT WEATHER AND/OR OBSTRUCTIONS TO VISIBILITY.

* - STATION DOES NOT REPORT WEATHER SUCH AS PRECIPITATION OR FOG.

+ - STATION NOT QUALITY CONTROLLED BY THE NATIONAL WEATHER SERVICE.
    USE DATA WITH CAUTION...ESPECIALLY DEWPOINT AND RELATIVE
    HUMIDITY OBSERVATIONS.

INZ001>003-010>013-019-020-171500-
NORTHWEST INDIANA

CITY           SKY/WX    TMP DP  RH WIND       PRES   REMARKS
GARY /AIRPORT/ MOSUNNY   48  27  43 S12G23    30.18S
VALPARAISO     MOSUNNY   48  26  42 S15       30.21S

$$

LMZ046-743>745-171500-
SOUTHERN LAKE MICHIGAN

STATION/POSITION TIME  TEMP WIND        PRES
                       AIR  DIR/SP/G
                 (UTC) (F)  (DEG/KT/KT) (MB)
MICHIGAN CITY    1300   43  140/ 14/ 18   N/A

$$

INZ004-005-014>016-021>024-171500-
NORTH CENTRAL INDIANA

CITY           SKY/WX    TMP DP  RH WIND       PRES   REMARKS
ELKHART        SUNNY     46  25  42 S8G17     30.24S
GOSHEN         MOSUNNY   49  27  42 S12       30.24F
SOUTH BEND     MOSUNNY   50  26  39 S13       30.23S

$$

INZ006>009-017-018-025>027-171500-
NORTHEAST INDIANA

CITY           SKY/WX    TMP DP  RH WIND       PRES   REMARKS
ANGOLA *+      SUNNY     41  27  56 S9        30.27F
FORT WAYNE     PTSUNNY   48  29  47 S13       30.29R

$$

INZ028-029-035-036-043>045-051>053-171500-
WEST CENTRAL INDIANA

CITY           SKY/WX    TMP DP  RH WIND       PRES   REMARKS
GREENCASTLE +  SUNNY     50  32  50 S9        30.27S
LAFAYETTE      SUNNY     50  28  42 SW12G18   30.23F
TERRE HAUTE    SUNNY     52  31  44 S13       30.27R

$$

INZ030>032-037>040-046>048-054>057-064-065-171500-
CENTRAL INDIANA

CITY           SKY/WX    TMP DP  RH WIND       PRES   REMARKS
ANDERSON       SUNNY     50  28  43 S12G23    30.29S
COLUMBUS       MOSUNNY   50  32  50 MISG      30.31R
INDIANAPOLIS   PTSUNNY   49  30  48 S10       30.28R
-EAGLE CREEK   SUNNY     48  28  46 S10       30.27S
KOKOMO *+      MOSUNNY   48  30  49 S15       30.26S
MT COMFORT *+  SUNNY     52  32  46 SW10      30.28S
SHELBYVILLE    SUNNY     52  32  46 S16       30.29S

$$

INZ033-034-041-042-049-050-058-059-171500-
EAST CENTRAL INDIANA

CITY           SKY/WX    TMP DP  RH WIND       PRES   REMARKS
MUNCIE         SUNNY     50  29  44 S12       30.28S

$$

INZ060-061-067>069-081>083-085>088-171500-
SOUTHWEST INDIANA

CITY           SKY/WX    TMP DP  RH WIND       PRES   REMARKS
EVANSVILLE     SUNNY     54  35  48 S15G22    30.32R
HUNTINGBURG *+ SUNNY     54  36  50 SW14G21   30.33R

$$

INZ062-063-066-070>080-084-089>092-171500-
SOUTH CENTRAL AND SOUTHEAST INDIANA

CITY           SKY/WX    TMP DP  RH WIND       PRES   REMARKS
BLOOMINGTON    SUNNY     53  31  42 S14G20    30.28S

$$




USA.gov is the U.S. government's official web portal to all federal, state and local government web resources and services.